TimeEDT,TemperatureF,Dew PointF,Humidity,Sea Level PressureIn,VisibilityMPH,Wind Direction,Wind SpeedMPH,Gust SpeedMPH,PrecipitationIn,Events,Conditions,WindDirDegrees,DateUTC
12:54 AM,27.0,17.1,66,29.96,10.0,West,20.7,31.1,0.00,,Overcast,280,2013-04-03 04:54:00
1:54 AM,27.0,15.1,61,29.97,10.0,West,15.0,26.5,0.00,,Mostly Cloudy,270,2013-04-03 05:54:00
2:54 AM,26.1,15.1,63,29.97,10.0,West,24.2,29.9,N/A,,Overcast,280,2013-04-03 06:54:00
3:54 AM,25.0,15.1,66,29.97,10.0,West,19.6,27.6,N/A,,Mostly Cloudy,280,2013-04-03 07:54:00
4:37 AM,24.8,17.6,74,29.94,2.5,NW,10.4,23.0,0.00,Snow,Light Snow,310,2013-04-03 08:37:00
4:45 AM,24.8,17.6,74,29.94,1.0,West,11.5,28.8,0.00,Snow,Light Snow,280,2013-04-03 08:45:00
4:54 AM,24.1,17.1,75,29.99,5.0,West,19.6,25.3,0.00,Snow,Light Snow,280,2013-04-03 08:54:00
5:29 AM,23.0,17.6,80,29.94,10.0,West,13.8,-,0.00,,Mostly Cloudy,280,2013-04-03 09:29:00
5:54 AM,23.0,16.0,74,30.00,10.0,West,15.0,23.0,0.00,,Scattered Clouds,280,2013-04-03 09:54:00
6:54 AM,24.1,16.0,71,30.02,10.0,West,13.8,-,N/A,,Mostly Cloudy,280,2013-04-03 10:54:00
7:33 AM,24.8,15.8,69,29.99,10.0,West,12.7,21.9,N/A,,Scattered Clouds,280,2013-04-03 11:33:00
7:54 AM,25.0,16.0,69,30.04,10.0,West,17.3,25.3,N/A,,Mostly Cloudy,270,2013-04-03 11:54:00
8:37 AM,26.6,15.8,64,29.99,10.0,West,19.6,31.1,N/A,,Overcast,280,2013-04-03 12:37:00
8:54 AM,27.0,15.1,61,30.03,10.0,WNW,21.9,32.2,N/A,,Mostly Cloudy,290,2013-04-03 12:54:00
9:04 AM,28.4,15.8,59,29.99,10.0,WNW,20.7,29.9,N/A,,Mostly Cloudy,290,2013-04-03 13:04:00
9:54 AM,30.0,12.0,47,30.04,10.0,WNW,18.4,41.4,N/A,,Scattered Clouds,300,2013-04-03 13:54:00
10:54 AM,30.9,10.9,43,30.04,10.0,WNW,18.4,41.4,N/A,,Mostly Cloudy,290,2013-04-03 14:54:00
11:54 AM,32.0,10.9,42,30.04,10.0,West,21.9,38.0,N/A,,Mostly Cloudy,260,2013-04-03 15:54:00
12:54 PM,34.0,12.0,40,30.04,10.0,WNW,21.9,31.1,N/A,,Mostly Cloudy,290,2013-04-03 16:54:00
1:54 PM,35.1,12.0,39,30.04,10.0,WNW,23.0,34.5,N/A,,Clear,290,2013-04-03 17:54:00
2:54 PM,35.1,12.0,39,30.04,10.0,West,26.5,38.0,N/A,,Partly Cloudy,280,2013-04-03 18:54:00
3:54 PM,36.0,10.9,36,30.05,10.0,WNW,26.5,33.4,N/A,,Clear,290,2013-04-03 19:54:00
4:54 PM,36.0,12.0,37,30.07,10.0,West,18.4,27.6,N/A,,Scattered Clouds,280,2013-04-03 20:54:00
5:54 PM,32.0,10.0,40,30.10,10.0,WNW,29.9,40.3,N/A,,Scattered Clouds,290,2013-04-03 21:54:00
6:54 PM,30.9,10.9,43,30.12,10.0,West,23.0,32.2,N/A,,Clear,280,2013-04-03 22:54:00
7:54 PM,28.9,10.9,47,30.16,10.0,WNW,11.5,26.5,N/A,,Clear,300,2013-04-03 23:54:00
8:54 PM,28.0,12.0,51,30.19,10.0,WNW,18.4,29.9,N/A,,Clear,300,2013-04-04 00:54:00
9:54 PM,27.0,12.0,53,30.22,10.0,West,11.5,18.4,N/A,,Clear,270,2013-04-04 01:54:00
10:54 PM,27.0,12.9,56,30.22,10.0,WNW,15.0,26.5,N/A,,Clear,290,2013-04-04 02:54:00
11:54 PM,27.0,14.0,58,30.22,10.0,WNW,12.7,20.7,N/A,,Clear,290,2013-04-04 03:54:00